Regional Weather Roundup
Issued by NWS

Home | Current Version | Previous Version | Graphics & Text | Print | Product List | Glossary Off
Versions: 1 2 3 4 5 6 7 8 9 10 11 12 13 14 15 16 17 18 19 20 21 22 23 24 25 26 27 28 29 30 31 32 33 34 35 36 37 38 39 40 41 42 43 44 45 46 47 48 49 50

000
ASUS44 KMEG 221800
RWRTN
TENNESSEE HOURLY STATE WEATHER ROUNDUP
NATIONAL WEATHER SERVICE MEMPHIS TN
100 PM CDT TUE JUL 22 2014

TNZ002-004-019-021-049-052-054-088>092-221900-
WEST TENNESSEE

CITY           SKY/WX    TMP DP  RH WIND       PRES   REMARKS
MEMPHIS INTL   PTSUNNY   88  68  51 W7        30.09S HX  91
NWS MEMPHIS      N/A     87 N/A N/A MISG        N/A
JACKSON        SUNNY     88  68  51 S3        30.09S HX  91
DYERSBURG      SUNNY     88  64  45 CALM      30.10S
PARIS          MOSUNNY   84  70  61 W5        30.11S
$$

TNZ008-025-027-028-033-062-065-066-221900-
NORTH MIDDLE TENNESSEE

CITY           SKY/WX    TMP DP  RH WIND       PRES   REMARKS
NASHVILLE      PTSUNNY   88  69  53 SW3       30.10F HX  92
CLARKSVILLE    PTSUNNY   89  68  49 S7        30.09S HX  93
COOKEVILLE     MOSUNNY   90  72  55 CALM      30.12F HX  96
CROSSVILLE     PTSUNNY   80  66  62 CALM      30.18S
$$

TNZ061-075-076-078-094-096-097-221900-
SOUTH MIDDLE TENNESSEE

CITY           SKY/WX    TMP DP  RH WIND       PRES   REMARKS
WINCHESTER     SUNNY     82  70  65 SE7       30.13S
SHELBYVILLE    MOSUNNY   86  73  66 S8        30.12S HX  93
$$

TNZ017-018-042-046-047-221900-
NORTHEAST TENNESSEE

CITY           SKY/WX    TMP DP  RH WIND       PRES   REMARKS
TRI CITIES     MOSUNNY   86  64  47 CALM      30.15F
ELIZABETHTON   PTCLDY    84  64  51 CALM      30.15F
$$

TNZ012-013-036-069-073-074-221900-
CENTRAL EAST TENNESSEE

CITY           SKY/WX    TMP DP  RH WIND       PRES   REMARKS
KNOXVILLE      PTSUNNY   83  68  60 CALM      30.12F
OAK RIDGE      PTSUNNY   85  69  58 S6        30.13F
GATLINBURG     PTCLDY    86  70  58 NE6       30.11F HX  90
$$

TNZ083-085-099-221900-
SOUTHEAST TENNESSEE

CITY           SKY/WX    TMP DP  RH WIND       PRES   REMARKS
CHATTANOOGA    PTSUNNY   85  67  54 CALM      30.12F
$$

SKY/WX REPORTED AS FAIR MEANS FEW OR NO CLOUDS BELOW
12 THOUSAND FEET.



USA.gov is the U.S. government's official web portal to all federal, state and local government web resources and services.